Погода в Коацакоалькосе

Мексика     18°08′16″N   94°26′04″W
темп.,
°C
ветер,
м/с
пор.,
м/с
влажн.,
%
обл.,
%
осадки,
мм/ч
давл.,
гПа
погр.,
м
11 апреля, вс
вс1101:00+27юз814620 0.0 1005398
04:00+26юз814680 0.0 1005485
07:00+25юз613680 0.0 1006440
10:00+29юз59550 0.0 1008344
13:00+32всв15490 0.0 1006605
16:00+27ссв88740 0.0 1003361
19:00+26ссв35830 0.0 1003168
22:00+25ссв11870 0.0 100615
12 апреля, пн
пн1201:00+25юз49640 0.0 1006275
04:00+24юз510700 0.0 1005270
07:00+23юз47760 0.0 1006217
10:00+28юз47580 0.0 1008263
13:00+33в24410 0.0 1006558
16:00+28с55590 0.0 1003301
19:00+28с33670 0.0 100447
22:00+27зюз12630 0.0 100632
13 апреля, вт
вт1301:00+26ююз24590 0.0 100763
04:00+24юз34590 0.0 100685
07:00+24юз47610 0.0 1007152
10:00+29ююз58520 0.0 1008257
13:00+33в44440 0.0 1007546
16:00+31всв65560 0.0 1004537
19:00+28с23720 0.0 100478
22:00+28юз24600 0.0 100868
14 апреля, ср
ср1401:00+27юз59530 0.0 1008147
04:00+27юз613580 0.0 1007304
07:00+25юз612690 0.0 1008410
10:00+30ююз46520 0.0 1010265
13:00+31в55520 0.0 1008614
16:00+29св55652 0.0 1005471
19:00+27ссв34785 0.0 1005108
22:00+27ююв117584 0.0 100821
15 апреля, чт
чт1501:00+27юз6105458 0.0 1008198
04:00+27юз814596 0.0 1007358
07:00+26юз6127088 0.0 1008404
10:00+30ююз475261 0.0 1009301
13:00+31всв43530 0.0 1008619
16:00+28с77740 0.0 1005321
19:00+27с468219 0.0 1005233
22:00+26сз11861 0.0 100719